RYR71JV EGCC-LEPA

Flight info

Callsign RYR71JV
Flight time 2h 20m
Altitude 37000
Route SANBA N859 HON UN859 SOPIL DCT BALAN DCT EVPOK DCT NARAK DCT GAI DCT LOMRA DCT ROCAN DCT IBRAP N13 LORES
Aircraft B738/M-SDE2E3FGHIRWXY/LB1

Departure

Time 2026-05-04 17:37
Airport Manchester Airport (EGCC)

Arrival

Time 2026-05-04 19:58
Airport Palma de Mallorca Airport (LEPA)
Time Latitude Longitude Altitude Speed Heading
2026-05-04 17:23 53.36158 -2.26682 254 ft 0 kts 326°
2026-05-04 17:26 53.36116 -2.26636 254 ft 2 kts 326°
2026-05-04 17:27 53.36099 -2.26572 254 ft 4 kts 237°
2026-05-04 17:27 53.36131 -2.26502 254 ft 4 kts 231°
2026-05-04 17:28 53.36138 -2.26488 254 ft 0 kts 231°
2026-05-04 17:29 53.36135 -2.26495 254 ft 3 kts 231°
2026-05-04 17:30 53.35996 -2.26620 254 ft 12 kts 231°
2026-05-04 17:31 53.35946 -2.26702 254 ft 0 kts 199°
2026-05-04 17:31 53.35860 -2.26691 263 ft 16 kts 169°
2026-05-04 17:32 53.35571 -2.26643 262 ft 22 kts 207°
2026-05-04 17:33 53.35304 -2.27176 241 ft 17 kts 227°
2026-05-04 17:33 53.35188 -2.27237 231 ft 7 kts 192°
2026-05-04 17:34 53.35135 -2.27255 229 ft 15 kts 192°
2026-05-04 17:34 53.35017 -2.27312 224 ft 17 kts 216°
2026-05-04 17:35 53.34949 -2.27444 224 ft 0 kts 231°
2026-05-04 17:35 53.34950 -2.27444 224 ft 0 kts 231°
2026-05-04 17:37 53.34852 -2.27647 222 ft 58 kts 231°
2026-05-04 17:37 53.34450 -2.28476 224 ft 124 kts 231°
2026-05-04 17:37 53.33799 -2.29811 412 ft 161 kts 231°
2026-05-04 17:37 53.33075 -2.31331 1110 ft 171 kts 233°
2026-05-04 17:38 53.32362 -2.32901 2009 ft 169 kts 243°
2026-05-04 17:38 53.32154 -2.34867 2511 ft 187 kts 283°
2026-05-04 17:38 53.32486 -2.37131 2777 ft 215 kts 285°
2026-05-04 17:38 53.32829 -2.39692 3076 ft 238 kts 279°
2026-05-04 17:39 53.31466 -2.44832 4405 ft 263 kts 216°
2026-05-04 17:39 53.29766 -2.45903 4831 ft 264 kts 183°
2026-05-04 17:39 53.27920 -2.45562 4992 ft 273 kts 169°
2026-05-04 17:40 53.26148 -2.44502 5005 ft 274 kts 152°
2026-05-04 17:40 53.24486 -2.42933 5094 ft 275 kts 150°
2026-05-04 17:40 53.22807 -2.41339 5775 ft 278 kts 151°
2026-05-04 17:40 53.21121 -2.39785 6756 ft 277 kts 151°
2026-05-04 17:41 53.19410 -2.38239 7584 ft 281 kts 152°
2026-05-04 17:41 53.17672 -2.36703 8419 ft 284 kts 153°
2026-05-04 17:41 53.15912 -2.35160 9252 ft 288 kts 153°
2026-05-04 17:41 53.14124 -2.33599 10057 ft 293 kts 153°
2026-05-04 17:42 53.12289 -2.31999 10569 ft 307 kts 153°
2026-05-04 17:42 53.10314 -2.30279 10753 ft 332 kts 153°
2026-05-04 17:42 53.08239 -2.28472 11186 ft 346 kts 153°
2026-05-04 17:42 53.06087 -2.26597 11884 ft 351 kts 153°
2026-05-04 17:43 53.03916 -2.24708 12712 ft 353 kts 153°
2026-05-04 17:43 53.01732 -2.22812 13493 ft 356 kts 153°
2026-05-04 17:43 52.99522 -2.20896 14195 ft 360 kts 153°
2026-05-04 17:43 52.97292 -2.18963 14901 ft 362 kts 153°
2026-05-04 17:44 52.95055 -2.17027 15617 ft 364 kts 153°
2026-05-04 17:44 52.92786 -2.15064 16298 ft 368 kts 153°
2026-05-04 17:44 52.90521 -2.13106 16963 ft 371 kts 153°
2026-05-04 17:44 52.88224 -2.11123 17637 ft 374 kts 153°
2026-05-04 17:45 52.85908 -2.09126 18312 ft 377 kts 153°
2026-05-04 17:45 52.83565 -2.07108 18873 ft 381 kts 153°
2026-05-04 17:45 52.81241 -2.05108 19026 ft 382 kts 153°
2026-05-04 17:45 52.78885 -2.03083 19053 ft 382 kts 153°
2026-05-04 17:46 52.76493 -2.01030 19050 ft 382 kts 153°
2026-05-04 17:46 52.74189 -1.99053 19048 ft 382 kts 154°
2026-05-04 17:46 52.71867 -1.97065 19052 ft 381 kts 154°
2026-05-04 17:46 52.69531 -1.95068 19049 ft 381 kts 154°
2026-05-04 17:47 52.67170 -1.93051 19047 ft 381 kts 154°
2026-05-04 17:47 52.64818 -1.91045 19045 ft 380 kts 154°
2026-05-04 17:47 52.62475 -1.89049 19046 ft 380 kts 154°
2026-05-04 17:47 52.60161 -1.87080 19048 ft 380 kts 154°
2026-05-04 17:48 52.57809 -1.85081 19047 ft 379 kts 154°
2026-05-04 17:48 52.55471 -1.83096 19048 ft 379 kts 154°
2026-05-04 17:48 52.53125 -1.81106 19049 ft 379 kts 154°
2026-05-04 17:48 52.50775 -1.79116 19049 ft 379 kts 154°
2026-05-04 17:49 52.48435 -1.77136 19053 ft 379 kts 154°
2026-05-04 17:49 52.46093 -1.75157 19049 ft 379 kts 154°
2026-05-04 17:49 52.43751 -1.73180 19047 ft 379 kts 154°
2026-05-04 17:49 52.41405 -1.71201 19049 ft 378 kts 154°
2026-05-04 17:50 52.39065 -1.69231 19052 ft 378 kts 155°
2026-05-04 17:50 52.36726 -1.67266 19049 ft 378 kts 155°
2026-05-04 17:50 52.34333 -1.65526 19044 ft 376 kts 162°
2026-05-04 17:50 52.31871 -1.64195 19152 ft 380 kts 164°
2026-05-04 17:51 52.29332 -1.62914 19703 ft 382 kts 165°
2026-05-04 17:51 52.26796 -1.61647 20438 ft 380 kts 165°
2026-05-04 17:51 52.24276 -1.60377 21109 ft 380 kts 165°
2026-05-04 17:51 52.21739 -1.59085 21652 ft 384 kts 165°
2026-05-04 17:52 52.19180 -1.57772 22173 ft 387 kts 165°
2026-05-04 17:52 52.16603 -1.56441 22719 ft 390 kts 166°
2026-05-04 17:52 52.14010 -1.55098 23268 ft 392 kts 166°
2026-05-04 17:52 52.11406 -1.53748 23768 ft 395 kts 166°
2026-05-04 17:53 52.08813 -1.52404 24181 ft 398 kts 166°
2026-05-04 17:53 52.06163 -1.51033 24585 ft 401 kts 165°
2026-05-04 17:53 52.03493 -1.49653 24986 ft 404 kts 165°
2026-05-04 17:53 52.00816 -1.48271 25425 ft 405 kts 165°
2026-05-04 17:54 51.98120 -1.46880 25831 ft 408 kts 165°
2026-05-04 17:54 51.95411 -1.45485 26190 ft 411 kts 165°
2026-05-04 17:54 51.92673 -1.44077 26556 ft 414 kts 165°
2026-05-04 17:54 51.89925 -1.42666 26941 ft 416 kts 164°
2026-05-04 17:55 51.87159 -1.41247 27316 ft 418 kts 164°
2026-05-04 17:55 51.84411 -1.39839 27671 ft 421 kts 164°
2026-05-04 17:55 51.81607 -1.38404 28025 ft 423 kts 164°
2026-05-04 17:55 51.78798 -1.36968 28422 ft 424 kts 164°
2026-05-04 17:56 51.75993 -1.35539 28954 ft 422 kts 164°
2026-05-04 17:56 51.73182 -1.34118 29290 ft 425 kts 164°
2026-05-04 17:56 51.70350 -1.32693 29534 ft 428 kts 164°
2026-05-04 17:56 51.67497 -1.31258 29827 ft 431 kts 164°
2026-05-04 17:57 51.64627 -1.29815 30149 ft 432 kts 164°
2026-05-04 17:57 51.61757 -1.28363 30454 ft 433 kts 164°
2026-05-04 17:57 51.58889 -1.26906 30809 ft 432 kts 164°
2026-05-04 17:57 51.56029 -1.25454 31190 ft 430 kts 164°
2026-05-04 17:58 51.53182 -1.24011 31612 ft 428 kts 164°
2026-05-04 17:58 51.50382 -1.22597 31952 ft 428 kts 163°
2026-05-04 17:58 51.47577 -1.20968 32226 ft 430 kts 157°
2026-05-04 17:58 51.44874 -1.18918 32542 ft 430 kts 155°
2026-05-04 17:59 51.42184 -1.16841 32900 ft 429 kts 156°
2026-05-04 17:59 51.39491 -1.14813 33226 ft 428 kts 156°
2026-05-04 17:59 51.34078 -1.10839 33838 ft 427 kts 156°
2026-05-04 18:00 51.31388 -1.08876 34314 ft 420 kts 156°
2026-05-04 18:00 51.28749 -1.06948 34694 ft 418 kts 156°
2026-05-04 18:00 51.26089 -1.05007 34718 ft 423 kts 156°
2026-05-04 18:01 51.20727 -1.01103 35045 ft 426 kts 156°
2026-05-04 18:01 51.18031 -0.99145 35282 ft 426 kts 156°
2026-05-04 18:01 51.15334 -0.97189 35468 ft 427 kts 156°
2026-05-04 18:02 51.09913 -0.93263 35908 ft 427 kts 156°
2026-05-04 18:02 51.07210 -0.91308 36167 ft 426 kts 156°
2026-05-04 18:02 51.04504 -0.89355 36301 ft 428 kts 156°
2026-05-04 18:02 51.01783 -0.87393 36442 ft 430 kts 156°
2026-05-04 18:03 50.99055 -0.85429 36643 ft 430 kts 156°
2026-05-04 18:03 50.96371 -0.83497 36848 ft 430 kts 156°
2026-05-04 18:03 50.94532 -0.82175 36955 ft 430 kts 156°
2026-05-04 18:03 50.90920 -0.79583 36997 ft 434 kts 156°
2026-05-04 18:04 50.85429 -0.75611 36992 ft 432 kts 154°
2026-05-04 18:05 50.77819 -0.68038 36999 ft 429 kts 148°
2026-05-04 18:05 50.73719 -0.63767 36997 ft 428 kts 148°
2026-05-04 18:06 50.65491 -0.55360 36999 ft 427 kts 148°
2026-05-04 18:06 50.60524 -0.50341 37001 ft 427 kts 149°
2026-05-04 18:07 50.55507 -0.45288 37002 ft 429 kts 149°
2026-05-04 18:07 50.51319 -0.41079 37001 ft 431 kts 149°
2026-05-04 18:08 50.45428 -0.35170 37000 ft 433 kts 149°
2026-05-04 18:08 50.41164 -0.30905 37003 ft 435 kts 149°
2026-05-04 18:09 50.30969 -0.20742 36993 ft 436 kts 149°
2026-05-04 18:10 50.25842 -0.15651 36993 ft 436 kts 149°
2026-05-04 18:10 50.20728 -0.10586 36990 ft 435 kts 149°
2026-05-04 18:11 50.15661 -0.05578 36989 ft 433 kts 149°
2026-05-04 18:11 50.10519 -0.00712 36971 ft 431 kts 156°
2026-05-04 18:12 50.04883 0.02158 36997 ft 426 kts 167°
2026-05-04 18:12 49.99126 0.04325 36988 ft 425 kts 167°
2026-05-04 18:13 49.93398 0.06523 36988 ft 424 kts 167°
2026-05-04 18:14 49.84848 0.09860 36991 ft 424 kts 167°
2026-05-04 18:14 49.79123 0.12093 36992 ft 425 kts 167°
2026-05-04 18:15 49.67713 0.16528 36998 ft 426 kts 167°
2026-05-04 18:16 49.61932 0.18855 36999 ft 427 kts 166°
2026-05-04 18:16 49.56177 0.21202 36993 ft 428 kts 166°
2026-05-04 18:17 49.47514 0.24708 36994 ft 429 kts 166°
2026-05-04 18:18 49.38884 0.28179 36994 ft 430 kts 166°
2026-05-04 18:18 49.33096 0.30500 36992 ft 429 kts 167°
2026-05-04 18:19 49.24450 0.34066 36982 ft 429 kts 166°
2026-05-04 18:19 49.18740 0.36485 36964 ft 428 kts 166°
2026-05-04 18:20 49.13002 0.38901 36964 ft 427 kts 166°
2026-05-04 18:20 49.07272 0.41299 36963 ft 427 kts 166°
2026-05-04 18:21 49.01548 0.43687 36962 ft 426 kts 166°
2026-05-04 18:21 48.95825 0.46069 36954 ft 426 kts 167°
2026-05-04 18:22 48.90151 0.48425 36958 ft 425 kts 167°
2026-05-04 18:22 48.84447 0.50789 36959 ft 425 kts 167°
2026-05-04 18:23 48.78737 0.53148 36963 ft 425 kts 167°
2026-05-04 18:23 48.73049 0.55396 36965 ft 425 kts 168°
2026-05-04 18:24 48.67307 0.57620 36961 ft 428 kts 168°
2026-05-04 18:24 48.61534 0.59867 36959 ft 429 kts 168°
2026-05-04 18:25 48.55760 0.62116 36945 ft 428 kts 168°
2026-05-04 18:25 48.50013 0.64365 36943 ft 426 kts 167°
2026-05-04 18:26 48.44344 0.66675 36944 ft 424 kts 167°
2026-05-04 18:26 48.38673 0.68991 36948 ft 422 kts 167°
2026-05-04 18:27 48.33012 0.71286 36943 ft 420 kts 167°
2026-05-04 18:27 48.27377 0.73562 36941 ft 419 kts 167°
2026-05-04 18:28 48.21795 0.75794 36934 ft 418 kts 168°
2026-05-04 18:28 48.16180 0.78001 36937 ft 417 kts 168°
2026-05-04 18:29 48.10560 0.80204 36935 ft 417 kts 168°
2026-05-04 18:29 48.04940 0.82408 36929 ft 418 kts 168°
2026-05-04 18:30 47.96531 0.85698 36921 ft 419 kts 168°
2026-05-04 18:31 47.90884 0.87902 36927 ft 419 kts 168°
2026-05-04 18:31 47.85236 0.90102 36926 ft 420 kts 168°
2026-05-04 18:32 47.79574 0.92298 36921 ft 421 kts 168°
2026-05-04 18:32 47.73946 0.94474 36926 ft 421 kts 168°
2026-05-04 18:33 47.68285 0.96658 36929 ft 420 kts 168°
2026-05-04 18:33 47.62620 0.98840 36927 ft 420 kts 168°
2026-05-04 18:34 47.56978 1.01009 36925 ft 419 kts 168°
2026-05-04 18:34 47.51334 1.03174 36924 ft 418 kts 168°
2026-05-04 18:35 47.45744 1.05313 36930 ft 417 kts 168°
2026-05-04 18:35 47.40050 1.06462 36925 ft 412 kts 183°
2026-05-04 18:36 47.34330 1.06264 36924 ft 411 kts 183°
2026-05-04 18:36 47.28609 1.06088 36928 ft 411 kts 182°
2026-05-04 18:37 47.22896 1.05949 36925 ft 411 kts 182°
2026-05-04 18:37 47.17217 1.05824 36920 ft 411 kts 182°
2026-05-04 18:38 47.11501 1.05697 36926 ft 411 kts 182°
2026-05-04 18:38 47.05783 1.05571 36923 ft 411 kts 182°
2026-05-04 18:39 47.00062 1.05420 36921 ft 411 kts 183°
2026-05-04 18:39 46.94370 1.05167 36915 ft 412 kts 184°
2026-05-04 18:40 46.88645 1.04901 36921 ft 412 kts 184°
2026-05-04 18:40 46.82927 1.04647 36922 ft 412 kts 183°
2026-05-04 18:41 46.77172 1.04398 36920 ft 413 kts 183°
2026-05-04 18:41 46.71471 1.04152 36923 ft 413 kts 183°
2026-05-04 18:42 46.65739 1.03906 36920 ft 413 kts 183°
2026-05-04 18:42 46.59995 1.03659 36915 ft 413 kts 183°
2026-05-04 18:43 46.54249 1.03414 36910 ft 413 kts 184°
2026-05-04 18:43 46.48531 1.04204 36916 ft 416 kts 169°
2026-05-04 18:44 46.42927 1.06133 36914 ft 417 kts 169°
2026-05-04 18:44 46.37288 1.08067 36914 ft 416 kts 169°
2026-05-04 18:45 46.31646 1.09966 36915 ft 416 kts 170°
2026-05-04 18:45 46.26006 1.11846 36910 ft 416 kts 170°
2026-05-04 18:46 46.20395 1.13709 36908 ft 416 kts 170°
2026-05-04 18:46 46.14758 1.15576 36917 ft 416 kts 170°
2026-05-04 18:47 46.09117 1.17441 36907 ft 416 kts 170°
2026-05-04 18:47 46.03488 1.19299 36892 ft 415 kts 171°
2026-05-04 18:48 45.97865 1.21150 36912 ft 415 kts 171°
2026-05-04 18:48 45.92246 1.22997 36911 ft 414 kts 171°
2026-05-04 18:49 45.86665 1.24827 36908 ft 414 kts 171°
2026-05-04 18:49 45.81047 1.26665 36913 ft 414 kts 171°
2026-05-04 18:50 45.75432 1.28499 36910 ft 414 kts 171°
2026-05-04 18:50 45.70027 1.30261 36915 ft 414 kts 171°
2026-05-04 18:51 45.64589 1.32029 36915 ft 414 kts 171°
2026-05-04 18:51 45.58981 1.33850 36920 ft 414 kts 171°
2026-05-04 18:52 45.53368 1.35670 36917 ft 413 kts 171°
2026-05-04 18:52 45.47752 1.37485 36918 ft 413 kts 171°
2026-05-04 18:53 45.42145 1.39294 36920 ft 413 kts 171°
2026-05-04 18:53 45.36583 1.41085 36914 ft 412 kts 171°
2026-05-04 18:54 45.31093 1.42850 36927 ft 411 kts 171°
2026-05-04 18:54 45.25596 1.44613 36937 ft 411 kts 171°
2026-05-04 18:55 45.20107 1.46371 36941 ft 411 kts 171°
2026-05-04 18:55 45.11866 1.49004 36931 ft 410 kts 171°
2026-05-04 18:56 45.06309 1.50775 36940 ft 409 kts 171°
2026-05-04 18:56 45.00765 1.52538 36939 ft 409 kts 171°
2026-05-04 18:57 44.95212 1.54301 36923 ft 409 kts 171°
2026-05-04 18:57 44.89834 1.56004 36933 ft 408 kts 171°
2026-05-04 18:58 44.84335 1.57742 36930 ft 409 kts 171°
2026-05-04 18:58 44.78830 1.59479 36939 ft 409 kts 171°
2026-05-04 18:59 44.73288 1.61225 36933 ft 409 kts 171°
2026-05-04 18:59 44.67858 1.62938 36926 ft 391 kts 171°
2026-05-04 19:00 44.62526 1.64607 36945 ft 400 kts 171°
2026-05-04 19:00 44.57035 1.66321 36942 ft 408 kts 171°
2026-05-04 19:01 44.51434 1.67979 36935 ft 412 kts 175°
2026-05-04 19:01 44.45740 1.69049 36935 ft 413 kts 176°
2026-05-04 19:02 44.40034 1.70004 36917 ft 414 kts 176°
2026-05-04 19:02 44.34324 1.70996 36927 ft 414 kts 176°
2026-05-04 19:03 44.28661 1.72012 36932 ft 413 kts 176°
2026-05-04 19:03 44.22972 1.73044 36931 ft 412 kts 176°
2026-05-04 19:04 44.17301 1.74074 36917 ft 410 kts 176°
2026-05-04 19:04 44.11655 1.75096 36930 ft 408 kts 176°
2026-05-04 19:05 44.06033 1.76111 36929 ft 407 kts 176°
2026-05-04 19:05 44.00422 1.77122 36919 ft 406 kts 176°
2026-05-04 19:06 43.94822 1.78130 36934 ft 406 kts 176°
2026-05-04 19:06 43.89262 1.79128 36942 ft 406 kts 176°
2026-05-04 19:07 43.83657 1.80132 36933 ft 406 kts 176°
2026-05-04 19:07 43.78056 1.81133 36939 ft 406 kts 176°
2026-05-04 19:08 43.72434 1.82137 36953 ft 408 kts 176°
2026-05-04 19:08 43.66798 1.83141 36953 ft 409 kts 176°
2026-05-04 19:09 43.61177 1.84140 36951 ft 411 kts 176°
2026-05-04 19:09 43.55499 1.85148 36957 ft 412 kts 176°
2026-05-04 19:10 43.49801 1.86158 36962 ft 414 kts 176°
2026-05-04 19:10 43.44091 1.87168 36962 ft 415 kts 176°
2026-05-04 19:11 43.38360 1.88180 36951 ft 415 kts 177°
2026-05-04 19:11 43.32626 1.89190 36959 ft 416 kts 177°
2026-05-04 19:12 43.24040 1.90699 36959 ft 417 kts 177°
2026-05-04 19:13 43.18317 1.91703 36958 ft 416 kts 177°
2026-05-04 19:13 43.12570 1.92709 36962 ft 417 kts 177°
2026-05-04 19:14 43.06797 1.93717 36958 ft 418 kts 177°
2026-05-04 19:14 43.01025 1.94724 36967 ft 418 kts 177°
2026-05-04 19:15 42.95255 1.95728 36958 ft 419 kts 178°
2026-05-04 19:15 42.89508 1.96727 36967 ft 419 kts 178°
2026-05-04 19:16 42.83720 1.97730 36961 ft 419 kts 178°
2026-05-04 19:16 42.77934 1.98731 36963 ft 420 kts 178°
2026-05-04 19:17 42.72129 1.99730 36944 ft 421 kts 178°
2026-05-04 19:17 42.66333 2.00732 36951 ft 420 kts 177°
2026-05-04 19:18 42.60645 2.01713 36958 ft 419 kts 178°
2026-05-04 19:18 42.54862 2.02707 36951 ft 418 kts 178°
2026-05-04 19:19 42.49099 2.03695 36955 ft 417 kts 178°
2026-05-04 19:19 42.43352 2.04678 36947 ft 416 kts 178°
2026-05-04 19:20 42.37629 2.05632 36949 ft 413 kts 178°
2026-05-04 19:20 42.32014 2.07307 36938 ft 419 kts 171°
2026-05-04 19:21 42.26381 2.09353 36946 ft 419 kts 171°
2026-05-04 19:21 42.20745 2.11373 36950 ft 418 kts 171°
2026-05-04 19:22 42.15111 2.13373 36927 ft 419 kts 171°
2026-05-04 19:22 42.09484 2.15362 36929 ft 419 kts 171°
2026-05-04 19:23 42.03873 2.17338 36943 ft 419 kts 171°
2026-05-04 19:23 41.98224 2.19324 36935 ft 420 kts 171°
2026-05-04 19:24 41.92572 2.21309 36931 ft 420 kts 172°
2026-05-04 19:24 41.86921 2.23290 36937 ft 420 kts 172°
2026-05-04 19:25 41.81267 2.25269 36942 ft 420 kts 172°
2026-05-04 19:25 41.75617 2.27242 36649 ft 420 kts 172°
2026-05-04 19:25 41.72810 2.28224 36295 ft 414 kts 172°
2026-05-04 19:26 41.70075 2.29181 35890 ft 410 kts 172°
2026-05-04 19:26 41.67330 2.30140 35512 ft 406 kts 172°
2026-05-04 19:26 41.64608 2.31090 35114 ft 402 kts 172°
2026-05-04 19:26 41.61916 2.32028 34749 ft 398 kts 172°
2026-05-04 19:27 41.59244 2.32958 34367 ft 395 kts 172°
2026-05-04 19:27 41.56598 2.33878 34003 ft 392 kts 172°
2026-05-04 19:27 41.53970 2.34790 33563 ft 388 kts 172°
2026-05-04 19:27 41.51370 2.35693 33172 ft 383 kts 172°
2026-05-04 19:28 41.48799 2.36585 32785 ft 379 kts 172°
2026-05-04 19:28 41.46257 2.37466 32410 ft 376 kts 172°
2026-05-04 19:28 41.43738 2.38338 32046 ft 372 kts 172°
2026-05-04 19:28 41.41400 2.39146 31710 ft 369 kts 172°
2026-05-04 19:29 41.38916 2.40005 31353 ft 366 kts 172°
2026-05-04 19:29 41.36496 2.40840 31017 ft 363 kts 172°
2026-05-04 19:29 41.34065 2.41679 30667 ft 360 kts 172°
2026-05-04 19:29 41.31647 2.42512 30297 ft 357 kts 172°
2026-05-04 19:30 41.29247 2.43339 29975 ft 355 kts 172°
2026-05-04 19:30 41.26871 2.44157 29572 ft 352 kts 172°
2026-05-04 19:30 41.24613 2.44935 29248 ft 347 kts 172°
2026-05-04 19:30 41.22287 2.45736 28869 ft 344 kts 172°
2026-05-04 19:31 41.19985 2.46527 28541 ft 340 kts 173°
2026-05-04 19:31 41.17702 2.47311 28174 ft 337 kts 173°
2026-05-04 19:31 41.15443 2.48086 27841 ft 334 kts 173°
2026-05-04 19:31 41.13205 2.48853 27485 ft 331 kts 173°
2026-05-04 19:32 41.11016 2.49603 27165 ft 328 kts 173°
2026-05-04 19:32 41.08814 2.50357 26828 ft 325 kts 173°
2026-05-04 19:32 41.06609 2.51111 26491 ft 322 kts 173°
2026-05-04 19:32 41.04477 2.51840 26165 ft 320 kts 173°
2026-05-04 19:33 41.03567 2.52150 26032 ft 319 kts 173°
2026-05-04 19:33 41.01428 2.52881 25708 ft 316 kts 173°
2026-05-04 19:33 40.99304 2.53605 25387 ft 314 kts 173°
2026-05-04 19:33 40.97185 2.54327 25061 ft 315 kts 173°
2026-05-04 19:34 40.95070 2.55047 24733 ft 313 kts 173°
2026-05-04 19:34 40.92968 2.55763 24420 ft 311 kts 173°
2026-05-04 19:34 40.90876 2.56475 24103 ft 310 kts 173°
2026-05-04 19:34 40.88791 2.57185 23794 ft 308 kts 173°
2026-05-04 19:35 40.86715 2.57891 23449 ft 307 kts 174°
2026-05-04 19:35 40.84652 2.58591 23089 ft 306 kts 174°
2026-05-04 19:35 40.82626 2.59280 22755 ft 304 kts 174°
2026-05-04 19:35 40.80588 2.59972 22439 ft 302 kts 174°
2026-05-04 19:36 40.78551 2.60662 22128 ft 302 kts 173°
2026-05-04 19:36 40.76509 2.61352 21807 ft 304 kts 173°
2026-05-04 19:36 40.74434 2.62050 21507 ft 314 kts 173°
2026-05-04 19:36 40.72293 2.62770 21178 ft 318 kts 173°
2026-05-04 19:37 40.70155 2.63495 20831 ft 317 kts 173°
2026-05-04 19:37 40.68028 2.64218 20510 ft 314 kts 173°
2026-05-04 19:37 40.65919 2.64934 20173 ft 312 kts 173°
2026-05-04 19:37 40.63823 2.65643 19851 ft 310 kts 173°
2026-05-04 19:38 40.61770 2.66337 19532 ft 308 kts 173°
2026-05-04 19:38 40.59701 2.67035 19220 ft 306 kts 173°
2026-05-04 19:38 40.57643 2.67728 18882 ft 305 kts 172°
2026-05-04 19:38 40.55592 2.68419 18573 ft 303 kts 172°
2026-05-04 19:39 40.53554 2.69105 18265 ft 302 kts 172°
2026-05-04 19:39 40.51520 2.69788 17900 ft 301 kts 172°
2026-05-04 19:39 40.49512 2.70563 17516 ft 305 kts 163°
2026-05-04 19:39 40.47587 2.71841 17048 ft 312 kts 157°
2026-05-04 19:40 40.45704 2.73251 16700 ft 311 kts 156°
2026-05-04 19:40 40.43857 2.74643 16355 ft 309 kts 156°
2026-05-04 19:40 40.41993 2.76034 16035 ft 307 kts 156°
2026-05-04 19:40 40.40133 2.77407 15719 ft 305 kts 156°
2026-05-04 19:41 40.38287 2.78757 15409 ft 303 kts 157°
2026-05-04 19:41 40.36445 2.80096 15100 ft 302 kts 157°
2026-05-04 19:41 40.34612 2.81423 14787 ft 300 kts 157°
2026-05-04 19:41 40.32789 2.82740 14491 ft 298 kts 157°
2026-05-04 19:42 40.30975 2.84048 14189 ft 297 kts 156°
2026-05-04 19:42 40.29168 2.85350 13887 ft 296 kts 156°
2026-05-04 19:42 40.27393 2.86629 13574 ft 295 kts 156°
2026-05-04 19:42 40.25601 2.87919 13233 ft 293 kts 156°
2026-05-04 19:43 40.23816 2.89201 12918 ft 292 kts 156°
2026-05-04 19:43 40.22045 2.90474 12607 ft 290 kts 156°
2026-05-04 19:43 40.20277 2.91745 12258 ft 290 kts 157°
2026-05-04 19:43 40.18514 2.93011 11943 ft 288 kts 156°
2026-05-04 19:44 40.16761 2.94271 11628 ft 287 kts 156°
2026-05-04 19:44 40.15014 2.95525 11328 ft 286 kts 156°
2026-05-04 19:44 40.13272 2.96776 11028 ft 285 kts 156°
2026-05-04 19:44 40.11543 2.98016 10731 ft 283 kts 156°
2026-05-04 19:45 40.09816 2.99255 10436 ft 282 kts 156°
2026-05-04 19:45 40.08120 3.00469 10151 ft 282 kts 156°
2026-05-04 19:45 40.06428 3.01683 10032 ft 274 kts 156°
2026-05-04 19:45 40.04764 3.02875 9763 ft 272 kts 157°
2026-05-04 19:46 40.03108 3.04059 9473 ft 270 kts 156°
2026-05-04 19:46 40.01466 3.05233 9192 ft 269 kts 156°
2026-05-04 19:46 39.99828 3.06403 8918 ft 267 kts 157°
2026-05-04 19:46 39.98200 3.07566 8636 ft 266 kts 157°
2026-05-04 19:47 39.96584 3.08719 8371 ft 264 kts 157°
2026-05-04 19:47 39.94973 3.09868 8106 ft 263 kts 157°
2026-05-04 19:47 39.93388 3.10971 7848 ft 260 kts 163°
2026-05-04 19:47 39.91679 3.11348 7580 ft 245 kts 189°
2026-05-04 19:48 39.89991 3.11152 7309 ft 244 kts 190°
2026-05-04 19:48 39.88309 3.10935 7071 ft 242 kts 190°
2026-05-04 19:48 39.86638 3.10720 6821 ft 241 kts 191°
2026-05-04 19:48 39.84974 3.10506 6567 ft 240 kts 191°
2026-05-04 19:49 39.83325 3.10294 6332 ft 236 kts 191°
2026-05-04 19:49 39.81744 3.10096 6157 ft 228 kts 190°
2026-05-04 19:49 39.80129 3.09894 5893 ft 237 kts 190°
2026-05-04 19:49 39.78455 3.09684 5646 ft 246 kts 190°
2026-05-04 19:50 39.76729 3.09469 5377 ft 251 kts 190°
2026-05-04 19:50 39.75001 3.09258 5140 ft 247 kts 190°
2026-05-04 19:50 39.73321 3.09053 5049 ft 238 kts 190°
2026-05-04 19:50 39.71714 3.08752 4919 ft 227 kts 204°
2026-05-04 19:51 39.70563 3.07548 4870 ft 209 kts 236°
2026-05-04 19:51 39.69768 3.06016 4778 ft 201 kts 235°
2026-05-04 19:51 39.69000 3.04543 4683 ft 196 kts 238°
2026-05-04 19:51 39.68290 3.03109 4702 ft 187 kts 239°
2026-05-04 19:52 39.67588 3.01651 4477 ft 192 kts 239°
2026-05-04 19:52 39.66884 3.00173 4229 ft 192 kts 239°
2026-05-04 19:52 39.66187 2.98704 3970 ft 190 kts 238°
2026-05-04 19:52 39.65498 2.97246 3713 ft 189 kts 239°
2026-05-04 19:53 39.64810 2.95793 3463 ft 188 kts 239°
2026-05-04 19:53 39.64140 2.94380 3218 ft 181 kts 238°
2026-05-04 19:53 39.63491 2.93008 2983 ft 175 kts 238°
2026-05-04 19:53 39.62868 2.91693 2765 ft 168 kts 240°
2026-05-04 19:54 39.62278 2.90444 2543 ft 164 kts 239°
2026-05-04 19:54 39.61689 2.89196 2331 ft 157 kts 238°
2026-05-04 19:54 39.61133 2.88022 2116 ft 150 kts 239°
2026-05-04 19:54 39.60610 2.86912 1933 ft 141 kts 237°
2026-05-04 19:55 39.60098 2.85831 1761 ft 140 kts 238°
2026-05-04 19:55 39.59590 2.84755 1581 ft 141 kts 238°
2026-05-04 19:55 39.59073 2.83660 1386 ft 145 kts 238°
2026-05-04 19:55 39.58550 2.82551 1190 ft 139 kts 238°
2026-05-04 19:56 39.58071 2.81536 993 ft 130 kts 237°
2026-05-04 19:56 39.57612 2.80564 823 ft 131 kts 237°
2026-05-04 19:56 39.57135 2.79554 673 ft 130 kts 236°
2026-05-04 19:56 39.56665 2.78554 427 ft 130 kts 238°
2026-05-04 19:57 39.56199 2.77551 302 ft 131 kts 237°
2026-05-04 19:57 39.55724 2.76549 165 ft 128 kts 237°
2026-05-04 19:57 39.55267 2.75577 30 ft 121 kts 238°
2026-05-04 19:57 39.54923 2.74854 29 ft 63 kts 238°
2026-05-04 19:58 39.54834 2.74611 29 ft 25 kts 257°
2026-05-04 19:58 39.54806 2.74400 29 ft 23 kts 266°
2026-05-04 19:58 39.54807 2.74195 29 ft 22 kts 283°
2026-05-04 19:58 39.54913 2.74060 29 ft 22 kts 328°
2026-05-04 19:59 39.55042 2.73959 29 ft 21 kts 329°
2026-05-04 19:59 39.55166 2.73860 29 ft 21 kts 328°
2026-05-04 19:59 39.55302 2.73754 29 ft 25 kts 329°
2026-05-04 19:59 39.55453 2.73635 29 ft 24 kts 328°
2026-05-04 20:00 39.55501 2.73569 29 ft 9 kts 256°
2026-05-04 20:00 39.55464 2.73484 29 ft 18 kts 238°
2026-05-04 20:00 39.55380 2.73309 29 ft 24 kts 238°
2026-05-04 20:00 39.55314 2.73169 29 ft 15 kts 238°
2026-05-04 20:01 39.55262 2.73062 29 ft 13 kts 238°
2026-05-04 20:01 39.55216 2.72967 29 ft 11 kts 238°
2026-05-04 20:01 39.55147 2.72965 29 ft 9 kts 164°
2026-05-04 20:01 39.55131 2.72971 29 ft 0 kts 164°